THORAD DELTA 1 DEB, 8165

Orbit data source: Space-Track

THORAD DELTA 1 DEB, 8165 is space debris in SSO originally from a launch on Fri, 15 Nov 1974 UTC launched from the Air Force Western Test Range (AFWTR). Debris objects in space refer to the collection of defunct objects orbiting the Earth. Examples of debris include non-operational satellites, rocket bodies, and fragments generated from explosions, collisions, or faulty payload assembly.

Loading next visibility...
Identifier
8165, 1974-089AF
Orbit
SSO
Country
Flag of USUS
Related business
Manufacturer
Unknown
Mission
Spacecraft
Bus & Motor
Unknown
Mass
Unknown
Launch date (UTC)
1974-11-15 (52 years ago)
Launch vehicle
Unknown
Launch site
Air Force Western Test Range (AFWTR)
Object type
Payload
Rocket body
Debris
Shape & HBR
Unknown shape, 0.1 m
Radar Cross Section
Medium (>0.1 m² and <1 m²)

Expand to show TLE details & history
Last TLE update: 14 hours ago

TLE from 14 hours ago
0 THORAD DELTA 1 DEB
1 08165U 74089AF  26208.34577507  .00000054  00000-0  64601-3 0  9993
2 08165 101.7115 151.6283 0016995 162.2052 350.8786 12.50210180357789
Epoch: 2026-07-27T08:17Z
TLE epoch observation values (Epoch: 2026-07-27T08:17:54.966Z)
Latitude
26.37701°
Longitude
-92.01006°
Altitude
1,453.37 km
Speed
7.144 km/s
True Right ascension
22h 29m 59s
True Declination
26° 15' 09"
Sunlit
Object was in partial shadow at epoch
Visualization orbit readout
Latitude
Unknown
Longitude
Unknown
Altitude
Unknown
Speed
Unknown
Apparent Right ascension
Unknown
Apparent Declination
Unknown
Sunlit
N/A
Visualization observer readout
Local Sidereal Time
11:24:27
Azimuth
Unknown
Elevation
Unknown
Doppler factor
Unknown
Orbital elements
Apogee altitude
1,474.483 km
Perigee altitude
1,447.837 km
Semi-major axis
7,839.297 km
Eccentricity
0.0017
Inclination
101.7115°
RAAN
151.6283°
Arg. of periapsis
162.2052°
True anomaly
350.84766°
Mean anomaly
350.8786°
Eccentric anomaly
350.86314°
Mean motion
3.127 °/min
Orbital period
115.13 mins
BSTAR
0.00064601
Loading maneuver chart data...
Computing Atmospheric mass density...

Documentation

Showing up to 5 results
|